OpenBCM V1.08-5-g2f4a (Linux)

Packet Radio Mailbox

IZ3LSV

[San Dona' di P. JN]

 Login: GUEST





  
CX2SA  > KEPS     21.07.12 03:16l 221 Lines 5826 Bytes #999 (0) @ WW
BID : ORB12202.W
Read: GUEST
Subj: Orbital Elements  12202.WEATHER
Path: IZ3LSV<IQ5KG<IK1NHL<CX2SA
Sent: 120721/0112Z @:CX2SA.SAL.URY.SA #:63439 [Salto] FBB7.00e $:ORB12202.W
From: CX2SA@CX2SA.SAL.URY.SA
To  : KEPS@AMSAT


HR AMSAT ORBITAL ELEMENTS FOR WEATHER SATELLITES
FROM WA5QGD FORT WORTH,TX July 20, 2012
Send SUBSCRIBE KEPS/UNSUBSCRIBE KEPS to majordomo@amsat.org only
BID: ORB12202.W
TO ALL RADIO AMATEURS BT

Satellite: NOAA-10
Catalog number: 16969
Epoch time:      12201.96214895
Element set:    0010
Inclination:      098.5809 deg
RA of node:       230.4304 deg
Eccentricity:    0.0012844
Arg of perigee:   135.8313 deg
Mean anomaly:     224.3896 deg
Mean motion:   14.27564793 rev/day
Decay rate:       1.62e-06 rev/day^2
Epoch rev:           34454
Checksum:              302

Satellite: NOAA-11
Catalog number: 19531
Epoch time:      12201.74317363
Element set:    0996
Inclination:      098.7333 deg
RA of node:       286.2174 deg
Eccentricity:    0.0011935
Arg of perigee:   128.9427 deg
Mean anomaly:     231.2809 deg
Mean motion:   14.14972578 rev/day
Decay rate:      -1.82e-06 rev/day^2
Epoch rev:           22911
Checksum:              310

Satellite: NOAA-12
Catalog number: 21263
Epoch time:      12201.96667966
Element set:    0499
Inclination:      098.7274 deg
RA of node:       223.4753 deg
Eccentricity:    0.0014793
Arg of perigee:   105.0643 deg
Mean anomaly:     255.2177 deg
Mean motion:   14.25507388 rev/day
Decay rate:        1.7e-07 rev/day^2
Epoch rev:           10122
Checksum:              303

Satellite: MET-3/5
Catalog number: 21655
Epoch time:      12201.43533565
Element set:    0001
Inclination:      082.5582 deg
RA of node:       129.4107 deg
Eccentricity:    0.0012335
Arg of perigee:   238.9263 deg
Mean anomaly:     121.0649 deg
Mean motion:   13.17037280 rev/day
Decay rate:       3.09e-06 rev/day^2
Epoch rev:           00589
Checksum:              268

Satellite: MET-2/21
Catalog number: 22782
Epoch time:      12201.84114151
Element set:    0477
Inclination:      082.5463 deg
RA of node:       006.5989 deg
Eccentricity:    0.0023885
Arg of perigee:   063.2002 deg
Mean anomaly:     297.1604 deg
Mean motion:   13.83685328 rev/day
Decay rate:        2.9e-07 rev/day^2
Epoch rev:           95368
Checksum:              308

Satellite: OKEAN-4
Catalog number: 23317
Epoch time:      12202.88388509
Element set:     947
Inclination:      082.5387 deg
RA of node:       359.6952 deg
Eccentricity:    0.0019861
Arg of perigee:   238.6996 deg
Mean anomaly:     121.2274 deg
Mean motion:   14.83854467 rev/day
Decay rate:       6.67e-06 rev/day^2
Epoch rev:           95980
Checksum:              365

Satellite: NOAA-14
Catalog number: 23455
Epoch time:      12201.95294684
Element set:    0980
Inclination:      098.8261 deg
RA of node:       285.0400 deg
Eccentricity:    0.0008733
Arg of perigee:   223.2805 deg
Mean anomaly:     136.7677 deg
Mean motion:   14.13908722 rev/day
Decay rate:      -1.34e-06 rev/day^2
Epoch rev:           90542
Checksum:              303

Satellite: NOAA-15
Catalog number: 25338
Epoch time:      12201.63457484
Element set:    0339
Inclination:      098.6909 deg
RA of node:       188.2394 deg
Eccentricity:    0.0011081
Arg of perigee:   019.9400 deg
Mean anomaly:     340.2198 deg
Mean motion:   14.25096418 rev/day
Decay rate:       2.17e-06 rev/day^2
Epoch rev:           73747
Checksum:              314

Satellite: RESURS
Catalog number: 25394
Epoch time:      12201.92768328
Element set:     140
Inclination:      098.3218 deg
RA of node:       188.4443 deg
Eccentricity:    0.0001946
Arg of perigee:   115.3927 deg
Mean anomaly:     244.7455 deg
Mean motion:   14.24290885 rev/day
Decay rate:        4.2e-07 rev/day^2
Epoch rev:           72906
Checksum:              304

Satellite: FENGYUN1
Catalog number: 25730
Epoch time:      12202.92977473
Element set:     653
Inclination:      098.8467 deg
RA of node:       161.3274 deg
Eccentricity:    0.0017842
Arg of perigee:   270.1222 deg
Mean anomaly:     089.7899 deg
Mean motion:   14.09672721 rev/day
Decay rate:       8.78e-06 rev/day^2
Epoch rev:           67936
Checksum:              343

Satellite: OKEAN-0
Catalog number: 25860
Epoch time:      12201.90753524
Element set:    0702
Inclination:      097.9387 deg
RA of node:       163.8868 deg
Eccentricity:    0.0001595
Arg of perigee:   096.3730 deg
Mean anomaly:     263.7660 deg
Mean motion:   14.74245218 rev/day
Decay rate:       3.98e-06 rev/day^2
Epoch rev:           69939
Checksum:              336

Satellite: NOAA-16
Catalog number: 26536
Epoch time:      12201.68663361
Element set:    0826
Inclination:      099.0911 deg
RA of node:       244.3075 deg
Eccentricity:    0.0010338
Arg of perigee:   357.8181 deg
Mean anomaly:     002.2948 deg
Mean motion:   14.12760478 rev/day
Decay rate:       2.56e-06 rev/day^2
Epoch rev:           60962
Checksum:              303

Satellite: NOAA-17
Catalog number: 27453
Epoch time:      12201.75568078
Element set:    0775
Inclination:      098.3354 deg
RA of node:       227.1455 deg
Eccentricity:    0.0012647
Arg of perigee:   063.9805 deg
Mean anomaly:     296.2666 deg
Mean motion:   14.24460445 rev/day
Decay rate:       2.44e-06 rev/day^2
Epoch rev:           52339
Checksum:              322

Satellite: NOAA-18
Catalog number: 28654
Epoch time:      12201.81106137
Element set:    0256
Inclination:      099.0467 deg
RA of node:       160.1731 deg
Eccentricity:    0.0015201
Arg of perigee:   064.6683 deg
Mean anomaly:     295.6083 deg
Mean motion:   14.11674493 rev/day
Decay rate:       1.58e-06 rev/day^2
Epoch rev:           36916
Checksum:              298

Satellite: NOAA-19
Catalog number: 33591
Epoch time:      12201.82620462
Element set:    0446
Inclination:      098.8641 deg
RA of node:       141.2118 deg
Eccentricity:    0.0013294
Arg of perigee:   291.4108 deg
Mean anomaly:     068.5673 deg
Mean motion:   14.11362075 rev/day
Decay rate:       2.60e-06 rev/day^2
Epoch rev:           17761
Checksum:              284



Read previous mail | Read next mail


 16.09.2025 07:50:38lGo back Go up